sat.trackr.live / text

‹ back to catalog

STARLINK-34432

NORAD 64426 · 2025-129Q

PAYLOAD ACTIVE UNKNOWN

§ Identity

Operator
Country
US
Launch date
2025-06-17
Launch site
AFWTR
Launch vehicle
Mass (kg)
RCS (m²)

Purposes: comms

External: N2YO · Heavens-Above · Gunter

§ Orbital elements

Epoch: 2026-09-20T12:05:39.566688Z

Period
94.14 min
Inclination
69.9995°
Eccentricity
0.0004001
Mean motion
15.29569837 rev/d
Perigee alt
474.4 km
Apogee alt
479.8 km
Semi-major
6,855.2 km
B*
4.1165e-4
RAAN
301.0598°
Arg perigee
270.3320°
Mean anomaly
89.7397°
Rev number
7,046

§ Raw data

STARLINK-344321 64426U 25129Q   26263.50393017  .00011721  00000+0  41165-3 0  99992 64426  69.9995 301.0598 0004001 270.3320  89.7397 15.29569837 70464

JSON: /api/v1/satellites/64426 · /tle

For live sub-satellite position, see the globe view (requires WebGL).

§ Visibility from observer

Set your observer location to see the next 7 days of passes ≥ 10°. The values pass through the URL so the page stays shareable.

No JS? Fill the form by hand. The geolocation button needs JavaScript.